Location: Marion Hill
(40.7303°N, 80.2959°W)
Time: 08:37:38
(UTC+00:00)

Cosmos 44 Rocket - Pass Details

Date: 29 October 2020
Orbit: 642 x 748 km, 65.1° (Epoch: 29 November)

Event Time Altitude Azimuth Distance (km) Brightness Sun altitude
Rises 23:05:51 0° 184° (S) 2,963 6.7 -9.2°
Reaches altitude 10° 23:08:19 10° 173° (S) 2,070 5.8 -9.6°
Maximum altitude 23:12:24 30° 112° (ESE) 1,196 4.1 -10.4°
Enters shadow 23:16:14 12° 54° (NE) 2,007 5.1 -11.1°
